Location: Big Prairie
(40.6673°N, 82.0952°W)
Time: 11:43:07
(UTC+00:00)

ATLAS CENTAUR R/B - Visible Passes

Search period start: 25 June 2022 00:00
Search period end: 05 July 2022 00:00
Orbit: 216 x 4832 km, 57.3° (Epoch: 25 June)

Date Brightness Start Highest point End Pass type
(mag) Time Alt. Az. Time Alt. Az. Time Alt. Az.
25 Jun 6.4 04:21:16 10° ESE 04:28:59 15° E 04:39:03 10° ENE visible
25 Jun 5.4 06:40:09 31° S 06:49:12 63° ESE 07:16:05 10° NE visible
25 Jun 6.2 09:00:12 10° WSW 09:18:32 66° NNW 09:49:01 10° NE visible
26 Jun 5.5 05:53:17 31° SSE 06:00:56 48° ESE 06:25:04 10° NE visible
26 Jun 5.9 08:12:35 16° WSW 08:27:38 76° NW 08:57:55 10° NE visible
27 Jun 5.7 05:06:10 25° SE 05:13:04 34° E 05:33:28 10° NE visible
27 Jun 5.6 07:25:26 25° SW 07:37:11 88° NW 08:06:41 10° NE visible
28 Jun 6.0 04:18:48 17° ESE 04:25:29 23° E 04:40:50 10° NE visible
28 Jun 5.3 06:38:03 33° SSW 06:47:14 77° ESE 07:15:17 10° NE visible
28 Jun 6.4 08:59:18 10° WSW 09:18:29 60° NNW 09:48:42 10° ENE visible
29 Jun 6.3 03:32:03 10° ESE 03:38:04 13° E 03:45:32 10° ENE visible
29 Jun 5.2 05:50:24 36° S 05:57:46 60° ESE 06:23:39 10° NE visible
29 Jun 6.1 08:09:38 12° WSW 08:26:24 67° NNW 08:56:39 10° NE visible
30 Jun 5.4 05:02:30 32° SSE 05:08:49 44° ESE 05:31:37 10° NE visible
30 Jun 5.8 07:21:42 21° SW 07:34:45 77° NW 08:04:32 10° NE visible
01 Jul 5.7 04:14:21 24° SE 04:20:13 31° E 04:38:55 10° NE visible
01 Jul 5.5 06:33:32 30° SW 06:43:34 89° SE 07:12:19 10° NE visible
01 Jul 6.5 08:56:25 10° W 09:16:28 56° NNW 09:46:18 10° ENE visible
02 Jul 6.0 03:25:56 15° ESE 03:31:54 20° E 03:44:57 10° NE visible
02 Jul 5.2 05:45:05 37° SSW 05:52:55 73° ESE 06:19:57 10° NE visible
02 Jul 6.3 08:05:17 10° WSW 08:23:17 61° NNW 08:53:21 10° ENE visible
03 Jul 6.3 02:42:24 10° E 02:43:44 10° E 02:45:07 10° ENE visible
03 Jul 5.1 04:56:22 37° SSE 05:02:48 56° ESE 05:27:19 10° NE visible
03 Jul 6.1 07:15:29 14° WSW 07:30:28 69° NNW 08:00:19 10° NE visible
04 Jul 5.3 04:07:24 30° SE 04:13:10 40° ESE 04:34:13 10° NE visible
04 Jul 5.7 06:26:29 23° SW 06:38:08 80° NW 07:07:13 10° NE visible
04 Jul 6.6 08:51:29 10° W 09:12:22 54° N 09:41:49 10° ENE visible
